[[{"header":{"parameterUnit":"m.s-1","parameterCategory":1,"la1":30.2991,"la2":30.254,"lo1":-89.0895,"lo2":-89.0444,"dy":0.0017,"dx":0.0017,"nx":28,"ny":28,"refTime":"2024-08-21T21:00:00:Z","depth":0,"parameterNumber":2,"parameterNumberName":"U-component_of_WINDS"},"data":[0,0,0,0,0,0,0,0,0,0,0,0,0,0,0,0,0,0,0,0,0,0,0,0,0,0,0,0,0,0,0,0,0,0,0,0,0,0,0,0,0,0,0,0,0,0,0,0,0,0,0,0,0,0,0,0,0,0,-2.2783,-2.2784,0,-2.2883,-2.2885,-2.2886,-2.286,-2.2858,-2.2856,-2.2854,-2.2959,-2.2964,-2.2968,0,0,0,0,0,0,0,0,0,0,0,0,0,-2.2572,-2.2576,-2.2783,-2.2784,-2.2785,-2.2883,-2.2885,-2.2886,-2.2861,-2.2858,-2.2856,-2.2854,-2.2958,-2.2963,-2.2969,0,0,0,0,0,0,0,0,0,0,0,0,0,-2.2667,-2.2577,-2.2783,-2.2784,-2.2786,-2.2883,-2.2885,-2.2886,-2.2861,-2.2858,-2.2855,-2.2852,-2.2956,-2.2963,-2.297,-2.3072,0,0,-2.2991,-2.2994,0,0,0,0,0,0,0,0,-2.2662,-2.2675,-2.2783,-2.2784,-2.2786,-2.2856,-2.2849,-2.2949,-2.2862,-2.2832,-2.2854,-2.2851,-2.2928,-2.2937,-2.2962,-2.3077,-2.3081,-2.2992,-2.2996,-2.2999,-2.3001,0,0,0,0,0,0,0,-2.2655,-2.267,-2.2823,-2.2784,-2.2786,-2.2781,-2.2791,-2.2867,-2.2896,-2.2835,-2.2833,-2.2845,-2.2928,-2.2955,-2.2964,-2.3083,-2.2991,-2.2997,-2.3002,-2.3004,-2.329,-2.3293,0,0,0,0,0,0,-2.2647,-2.2665,-2.2819,-2.2826,-2.2715,-2.2787,-2.2799,-2.2837,-2.2895,-2.2901,-2.2848,-2.2844,-2.2945,-2.2956,-2.2968,-2.3093,-2.2999,-2.3005,-2.3009,-2.3286,-2.329,-2.3294,0,0,0,0,0,0,-2.2642,-2.2661,-2.2815,-2.2745,-2.2764,-2.2794,-2.2837,-2.284,-2.2868,-2.2904,-2.2909,-2.2871,-2.2943,-2.2958,-2.3047,-2.3097,-2.3008,-2.3015,-2.3282,-2.3287,-2.3292,-2.3344,0,0,0,0,0,0,-2.2636,-2.2659,-2.2698,-2.2746,-2.2768,-2.2892,-2.284,-2.2844,-2.288,-2.2875,-2.2927,-2.2933,-2.2942,-2.3037,-2.3054,-2.3105,-2.302,-2.3278,-2.3285,-2.3291,-2.3338,-2.335,-2.336,0,0,0,0,0,-2.2629,-2.2708,-2.27,-2.2719,-2.2816,-2.2894,-2.2907,-2.2915,-2.2884,-2.2923,-2.2947,-2.2931,-2.3088,-2.3046,-2.3065,-2.3119,-2.3275,-2.3283,-2.329,-2.3333,-2.3348,-2.336,0,0,0,0,0,0,-2.2665,-2.2714,-2.2706,-2.2802,-2.2845,-2.289,-2.294,-2.2931,-2.2983,-2.2977,-2.2985,-2.2997,-2.3088,-2.3112,-2.3064,-2.3222,-2.3177,-2.3189,-2.3203,-2.3217,-2.3229,-2.3221,-2.3026,0,0,0,0,0,-2.2684,-2.2742,-2.2783,-2.2864,-2.2886,-2.2909,-2.2944,-2.2947,-2.2991,-2.3008,-2.3038,-2.3083,-2.3142,-2.3181,-2.3237,-2.3341,-2.3353,-2.3388,-2.3399,-2.3408,-2.3418,-2.3477,-2.3494,-2.3319,-2.3319,-2.3319,0,0,-2.2724,-2.2758,-2.2795,-2.2873,-2.2905,-2.2967,-2.2924,-2.2991,-2.3037,-2.3019,-2.3104,-2.3128,-2.3178,-2.3275,-2.332,-2.3298,-2.347,-2.3418,-2.3425,-2.343,-2.3487,-2.3503,-2.3518,-2.3324,-2.3323,-2.3323,0,0,-2.2829,-2.286,-2.2932,-2.2967,-2.3017,-2.3032,-2.305,-2.3098,-2.3113,-2.3199,-2.3187,-2.3243,-2.3344,-2.3381,-2.3413,-2.3534,-2.3523,-2.3553,-2.3612,-2.367,-2.3683,-2.3696,-2.3741,-2.3756,-2.3563,-2.3563,-2.3563,0,-2.2872,-2.2964,-2.2971,-2.3039,-2.3075,-2.3061,-2.3135,-2.3168,-2.3235,-2.326,-2.3235,-2.3364,-2.3396,-2.3503,-2.3533,-2.3559,-2.358,-2.3547,-2.3681,-2.3693,-2.3705,-2.3748,-2.3764,-2.3566,-2.3566,-2.3566,-2.3565,0,-2.3016,-2.308,-2.3132,-2.3197,-2.3239,-2.331,-2.3329,-2.337,-2.337,-2.3389,-2.3478,-2.3517,-2.3582,-2.3607,-2.3608,-2.3715,-2.37,-2.3678,-2.3633,-2.3725,-2.3765,-2.3782,-2.3571,-2.357,-2.3569,-2.3568,0,0,-2.3145,-2.3214,-2.3233,-2.3264,-2.3319,-2.337,-2.3441,-2.3505,-2.3541,-2.3588,-2.3649,-2.3736,-2.3717,-2.3753,-2.3758,-2.3808,-2.3904,-2.378,-2.3781,-2.3803,-2.4027,-2.4044,-2.4063,-2.3897,-2.39,-2.3902,-2.4023,0,-2.3255,-2.338,-2.339,-2.3503,-2.3563,-2.3552,-2.3615,-2.3657,-2.3677,-2.3732,-2.3754,-2.3816,-2.3785,-2.3807,-2.3856,-2.3882,-2.3949,-2.3873,-2.3955,-2.3958,-2.3944,-2.4084,-2.4102,-2.4214,-2.4039,-2.4042,-2.4044,0,-2.34,-2.3453,-2.3572,-2.3621,-2.3647,-2.3703,-2.3763,-2.3815,-2.3864,-2.3875,-2.3917,-2.3915,-2.399,-2.3942,-2.4047,-2.3995,-2.403,-2.4048,-2.4052,-2.4061,-2.4007,-2.4097,-2.425,-2.4267,-2.4069,-2.4067,-2.4065,0,-2.3484,-2.3584,-2.3669,-2.3695,-2.3754,-2.3794,-2.3821,-2.3866,-2.3905,-2.3958,-2.3983,-2.4045,-2.4079,-2.4127,-2.4143,-2.4106,-2.4248,-2.4201,-2.426,-2.426,-2.4291,-2.4289,-2.4452,-2.4312,-2.4311,-2.4311,-2.4311,0,-2.3607,-2.3681,-2.3708,-2.376,-2.3843,-2.3854,-2.3937,-2.3961,-2.4002,-2.406,-2.4054,-2.4109,-2.4126,-2.4185,-2.4197,-2.4284,-2.4299,-2.4311,-2.4314,-2.4312,-2.4311,-2.4335,-2.4328,-2.4316,-2.4315,-2.4314,-2.4313,0,-2.3715,-2.3735,-2.3827,-2.3877,-2.3891,-2.395,-2.3993,-2.4044,-2.4064,-2.4138,-2.4156,-2.4187,-2.4255,-2.4276,-2.4358,-2.4367,-2.4469,-2.4464,-2.4452,-2.4453,-2.4512,-2.4506,-2.4697,-2.4723,-2.4565,-2.4566,-2.4567,0,-2.3792,-2.3848,-2.3904,-2.3943,-2.3971,-2.4033,-2.4073,-2.4087,-2.4128,-2.4189,-2.4233,-2.4301,-2.4356,-2.4467,-2.4498,-2.4561,-2.4559,-2.4621,-2.4568,-2.4566,-2.4561,-2.4558,-2.4565,-2.4631,-2.4633,-2.4634,-2.4635,0,-2.3927,-2.3935,-2.3992,-2.4054,-2.4101,-2.415,-2.4198,-2.423,-2.4251,-2.4298,-2.4368,-2.4411,-2.4496,-2.4564,-2.463,-2.4658,-2.4652,-2.4652,-2.467,-2.4669,-2.466,-2.4667,-2.4481,-2.4648,-2.4646,-2.4645,-2.4645,-2.4644,-2.4023,-2.4073,-2.4121,-2.4186,-2.4223,-2.4268,-2.4319,-2.4346,-2.4404,-2.4474,-2.4479,-2.4556,-2.4605,-2.4692,-2.4725,-2.4786,-2.4768,-2.4793,-2.4799,-2.4805,-2.4811,-2.465,-2.4798,-2.4797,-2.4797,-2.4797,-2.4797,0,-2.4159,-2.419,-2.4249,-2.4316,-2.4367,-2.4356,-2.4408,-2.4452,-2.4519,-2.4566,-2.462,-2.4702,-2.4769,-2.4806,-2.4873,-2.4915,-2.4914,-2.4932,-2.493,-2.4937,-2.4822,-2.4801,-2.4932,-2.4932,-2.4932,-2.4932,-2.4932,-2.4932,-2.4236,-2.4322,-2.4336,-2.4441,-2.4472,-2.4546,-2.4578,-2.462,-2.4657,-2.4749,-2.4804,-2.4828,-2.4871,-2.4942,-2.5003,-2.5012,-2.5038,-2.5059,-2.5066,-2.4959,-2.4945,-2.4931,-2.4912,-2.5064,-2.5064,-2.5176,-2.5177,-2.5178]},{"header":{"parameterUnit":"m.s-1","parameterCategory":1,"la1":30.2991,"la2":30.254,"lo1":-89.0895,"lo2":-89.0444,"dy":0.0017,"dx":0.0017,"nx":28,"ny":28,"refTime":"2024-08-21T21:00:00:Z","depth":0,"parameterNumber":3,"parameterNumberName":"V-component_of_WINDS"},"data":[0,0,0,0,0,0,0,0,0,0,0,0,0,0,0,0,0,0,0,0,0,0,0,0,0,0,0,0,0,0,0,0,0,0,0,0,0,0,0,0,0,0,0,0,0,0,0,0,0,0,0,0,0,0,0,0,0,0,-1.7476,-1.7476,0,-1.7438,-1.7438,-1.7437,-1.7374,-1.7373,-1.7372,-1.7371,-1.7333,-1.7334,-1.7334,0,0,0,0,0,0,0,0,0,0,0,0,0,-1.7496,-1.7496,-1.7476,-1.7476,-1.7476,-1.7438,-1.7438,-1.7437,-1.7375,-1.7373,-1.7372,-1.737,-1.7333,-1.7334,-1.7334,0,0,0,0,0,0,0,0,0,0,0,0,0,-1.7476,-1.7496,-1.7477,-1.744,-1.7436,-1.7438,-1.7438,-1.7437,-1.7375,-1.7373,-1.7371,-1.737,-1.7333,-1.7334,-1.7334,-1.7369,0,0,-1.7334,-1.7334,0,0,0,0,0,0,0,0,-1.7477,-1.7475,-1.7446,-1.7442,-1.7438,-1.7409,-1.7431,-1.7414,-1.7375,-1.7398,-1.7371,-1.7369,-1.736,-1.7358,-1.7355,-1.7368,-1.7366,-1.7334,-1.7334,-1.7334,-1.7334,0,0,0,0,0,0,0,-1.7478,-1.7476,-1.7461,-1.7445,-1.7441,-1.7425,-1.7421,-1.7427,-1.739,-1.7396,-1.7391,-1.7388,-1.7358,-1.7355,-1.7353,-1.7365,-1.7334,-1.7334,-1.7334,-1.7334,-1.7406,-1.7407,0,0,0,0,0,0,-1.7485,-1.7478,-1.7463,-1.746,-1.7454,-1.7426,-1.7421,-1.742,-1.7389,-1.7383,-1.7389,-1.7385,-1.7355,-1.7353,-1.7352,-1.7392,-1.7334,-1.7334,-1.7334,-1.7404,-1.7406,-1.7408,0,0,0,0,0,0,-1.7486,-1.7484,-1.7464,-1.7468,-1.7464,-1.7428,-1.7428,-1.742,-1.7417,-1.7384,-1.7377,-1.7393,-1.7354,-1.7352,-1.7365,-1.739,-1.7334,-1.7334,-1.7402,-1.7404,-1.7407,-1.7473,0,0,0,0,0,0,-1.7487,-1.7485,-1.7498,-1.7469,-1.7464,-1.7478,-1.7429,-1.7421,-1.7418,-1.7412,-1.7386,-1.738,-1.7352,-1.7365,-1.7365,-1.7389,-1.7335,-1.7399,-1.7403,-1.7406,-1.7468,-1.7477,-1.7485,0,0,0,0,0,-1.7488,-1.7518,-1.7499,-1.7498,-1.748,-1.748,-1.7477,-1.7445,-1.742,-1.7433,-1.7411,-1.7381,-1.7387,-1.7367,-1.7367,-1.7391,-1.7398,-1.7402,-1.7406,-1.7464,-1.7475,-1.7485,0,0,0,0,0,0,-1.7553,-1.7514,-1.7492,-1.7514,-1.7501,-1.7469,-1.7485,-1.7457,-1.7451,-1.7446,-1.7406,-1.7401,-1.742,-1.7406,-1.7385,-1.7424,-1.7387,-1.7392,-1.7432,-1.7442,-1.7451,-1.7454,-1.7335,0,0,0,0,0,-1.7569,-1.7572,-1.7538,-1.7561,-1.7556,-1.7522,-1.752,-1.7496,-1.7481,-1.7475,-1.7454,-1.7441,-1.744,-1.744,-1.7437,-1.7465,-1.7459,-1.7481,-1.749,-1.7497,-1.7501,-1.7515,-1.7525,-1.7421,-1.7421,-1.7421,0,0,-1.7605,-1.7584,-1.7588,-1.7574,-1.7561,-1.7565,-1.7517,-1.7524,-1.7527,-1.7476,-1.7488,-1.7472,-1.7455,-1.7476,-1.7484,-1.7465,-1.7528,-1.7502,-1.7508,-1.7509,-1.7521,-1.7531,-1.7539,-1.7424,-1.7424,-1.7423,0,0,-1.7671,-1.7655,-1.7673,-1.766,-1.764,-1.7617,-1.7621,-1.7593,-1.7581,-1.7592,-1.7554,-1.7557,-1.7555,-1.7544,-1.7539,-1.76,-1.7572,-1.76,-1.7645,-1.7659,-1.7667,-1.7674,-1.7697,-1.7705,-1.7604,-1.7604,-1.7604,0,-1.7718,-1.7722,-1.7685,-1.7694,-1.7689,-1.7642,-1.766,-1.7649,-1.763,-1.7628,-1.7606,-1.7604,-1.7588,-1.7607,-1.7621,-1.7618,-1.7622,-1.7604,-1.7669,-1.7676,-1.7682,-1.7703,-1.7711,-1.7608,-1.7608,-1.7607,-1.7607,0,-1.7781,-1.7785,-1.7801,-1.7783,-1.7779,-1.7793,-1.7758,-1.7759,-1.7735,-1.7714,-1.7726,-1.7705,-1.7698,-1.77,-1.7676,-1.7714,-1.7703,-1.7676,-1.7639,-1.7696,-1.7715,-1.7723,-1.7613,-1.7612,-1.7611,-1.761,0,0,-1.7889,-1.7849,-1.7856,-1.7847,-1.7821,-1.7824,-1.7834,-1.7826,-1.7828,-1.7816,-1.7824,-1.7824,-1.7798,-1.7792,-1.7766,-1.7779,-1.7829,-1.775,-1.7749,-1.7766,-1.7871,-1.7892,-1.7902,-1.7809,-1.7811,-1.7812,-1.7872,0,-1.7951,-1.7968,-1.7934,-1.7959,-1.7962,-1.7917,-1.7927,-1.7912,-1.7892,-1.7893,-1.7871,-1.7871,-1.7837,-1.7833,-1.7843,-1.7821,-1.785,-1.7816,-1.7818,-1.7819,-1.7826,-1.7912,-1.7936,-1.7994,-1.788,-1.7881,-1.7882,0,-1.8027,-1.8018,-1.8043,-1.8015,-1.8015,-1.8024,-1.8014,-1.8014,-1.7996,-1.7981,-1.7973,-1.7943,-1.7952,-1.7915,-1.7927,-1.7905,-1.7904,-1.7893,-1.7894,-1.7895,-1.7855,-1.7916,-1.8011,-1.8021,-1.7893,-1.7892,-1.7891,0,-1.8105,-1.8099,-1.8113,-1.8106,-1.8074,-1.8081,-1.8068,-1.8048,-1.8045,-1.8036,-1.8034,-1.8026,-1.8022,-1.8016,-1.7985,-1.7961,-1.8001,-1.7962,-1.799,-1.7991,-1.8002,-1.8002,-1.81,-1.7999,-1.7998,-1.7998,-1.7998,0,-1.8179,-1.8196,-1.8147,-1.8156,-1.8174,-1.8135,-1.8154,-1.8136,-1.8119,-1.8124,-1.8084,-1.8089,-1.8047,-1.8048,-1.8023,-1.8037,-1.8035,-1.8024,-1.8017,-1.8028,-1.803,-1.8028,-1.8024,-1.8001,-1.8,-1.8,-1.7999,0,-1.827,-1.8238,-1.825,-1.8218,-1.821,-1.8225,-1.8197,-1.8205,-1.8182,-1.8188,-1.8188,-1.8152,-1.8151,-1.8118,-1.8111,-1.8094,-1.8119,-1.8104,-1.8125,-1.8121,-1.8151,-1.8149,-1.8253,-1.8264,-1.8155,-1.8156,-1.8157,0,-1.832,-1.8332,-1.8301,-1.8301,-1.829,-1.829,-1.8287,-1.8248,-1.8246,-1.8226,-1.8236,-1.8231,-1.8226,-1.8226,-1.82,-1.8193,-1.8179,-1.8216,-1.8178,-1.8189,-1.8181,-1.8182,-1.8183,-1.8224,-1.8226,-1.8227,-1.8228,0,-1.8413,-1.8396,-1.8393,-1.8383,-1.838,-1.8371,-1.8359,-1.8361,-1.8319,-1.8319,-1.8317,-1.8312,-1.8304,-1.83,-1.8289,-1.8275,-1.8245,-1.8239,-1.8246,-1.8258,-1.827,-1.8265,-1.8148,-1.8238,-1.8237,-1.8236,-1.8235,-1.8235,-1.8486,-1.8495,-1.8474,-1.8471,-1.8458,-1.8448,-1.8453,-1.843,-1.8428,-1.8418,-1.8394,-1.8396,-1.8377,-1.8359,-1.8348,-1.8349,-1.833,-1.8339,-1.8342,-1.8345,-1.8352,-1.8269,-1.8346,-1.8346,-1.8346,-1.8345,-1.8345,0,-1.8578,-1.8562,-1.856,-1.8544,-1.8542,-1.8512,-1.8497,-1.8498,-1.85,-1.8484,-1.8479,-1.8477,-1.8472,-1.8445,-1.8438,-1.8444,-1.843,-1.8443,-1.8444,-1.8441,-1.8368,-1.8364,-1.8455,-1.8455,-1.8455,-1.8455,-1.8455,-1.8455,-1.8626,-1.864,-1.862,-1.8627,-1.861,-1.8611,-1.8606,-1.8596,-1.8583,-1.8582,-1.8578,-1.856,-1.854,-1.8531,-1.8526,-1.8518,-1.8517,-1.8536,-1.8524,-1.8457,-1.8446,-1.8436,-1.8432,-1.8536,-1.8536,-1.8597,-1.8597,-1.8598]}]]